Content
SEND FEEDBACK

Daily
Averages
Monthly
Summary
Canada

BEACH POINT, PRINCE EDWARD ISLAND


Home > North America > Canada > Prince Edward Island
Elevation: 174 feet     Latitude: 46 01N     Longitude: 062 36W

WEATHER
 
SELECT A DAY
Number of Records: 144,141;   Date Range: 1/1/95 - 9/15/14
 
SHARE

PRINT THIS DATA

[ ← Previous Day ]
WEATHER ALMANAC - JANUARY 31, 2013
[ Next Day → ]
[ °C ]   °F
Weather ElementAverageHighLow
Temperature51.6 °F55 °F (12:00 pm)40.6 °F (11:00 pm)
Dewpoint47.7 °F51.8 °F (5:00 pm)34.9 °F (9:00 pm)
Humidity85.9 %95 % (1:00 am)68 % (8:00 pm)
Barometer29.25 in29.53 in (1:00 am)28.96 in (5:00 pm)
Wind Speed22 mph34.5 mph (3:00 pm)
Wind Gust52.9 mph (5:00 pm)
Weather ElementAverage
Wind DirectionSSW (213 °)

Weather ElementTotal
Precipitation0.13 in
Heating Degree Days17.2 (Base 65)
Averaged from 27 records on January 31, 2013
WEATHER CONDITIONS BREAKOUT
WIND DIRECTION BREAKOUT
WEATHER BY HOUR - JANUARY 31, 2013
[ °C ]   °F
Local TimeTemperatureDewpointHumidityBarometerVisibilityWind DirectionWind SpeedGust SpeedPrecipitationEventsConditions
1:00 AM48.4 °F47.1 °F95 %29.53 inSSW (200°)19.6 mph27.6 mph
2:00 AM51.0 °F49.0 °F92 %29.51 inSSW (200°)21.9 mph
2:00 AM51.1 °F49.5 °F94 %29.51 inSSW (200°)21.9 mph35.7 mph
3:00 AM53.8 °F50.7 °F89 %29.51 inSSW (210°)23.0 mph38.0 mph
4:00 AM53.8 °F51.1 °F91 %29.50 inSSW (210°)19.6 mph32.2 mph
5:00 AM53.6 °F50.7 °F90 %29.48 inSSW (210°)17.3 mph31.1 mph
6:00 AM53.4 °F50.2 °F89 %29.45 inSSW (210°)20.7 mph38.0 mph
7:00 AM54.5 °F51.4 °F89 %29.44 inSSW (210°)19.6 mph35.7 mph
8:00 AM53.0 °F50.0 °F86 %29.42 inSSW (210°)20.7 mph
8:00 AM52.9 °F50.0 °F90 %29.42 inSSW (210°)20.7 mph33.4 mph
9:00 AM52.2 °F50.0 °F92 %29.38 inSSW (210°)15.0 mph27.6 mph
10:00 AM54.0 °F51.4 °F91 %29.36 inSSW (210°)23.0 mph36.8 mph0.03 in
11:00 AM54.5 °F51.1 °F88 %29.33 inSSW (210°)19.6 mph33.4 mph
12:00 PM55.0 °F50.5 °F85 %29.25 inSSW (200°)31.1 mph49.5 mph
1:00 PM54.1 °F49.8 °F85 %29.20 inSSW (200°)31.1 mph42.6 mph
2:00 PM55.0 °F51.0 °F81 %29.10 inSSW (200°)31.1 mph
2:00 PM54.7 °F50.7 °F86 %29.10 inSSW (200°)31.1 mph50.6 mph
3:00 PM54.5 °F51.6 °F90 %29.03 inSSW (200°)34.5 mph48.3 mph
4:00 PM53.1 °F50.5 °F91 %28.97 inSouth (190°)32.2 mph46.0 mph0.03 in
5:00 PM54.7 °F51.8 °F90 %28.96 inSSW (210°)31.1 mph52.9 mph0.04 in
6:00 PM52.3 °F48.0 °F85 %28.98 inSSW (210°)23.0 mph33.4 mph
7:00 PM50.4 °F43.9 °F78 %29.02 inSW (220°)20.7 mph34.5 mph0.03 in
8:00 PM47.0 °F40.0 °F68 %29.04 inSW (230°)15.0 mph
8:00 PM47.5 °F39.7 °F75 %29.04 inSW (230°)15.0 mph24.2 mph
9:00 PM44.2 °F34.9 °F70 %29.06 inWSW (250°)13.8 mph27.6 mph
10:00 PM43.3 °F35.6 °F74 %29.10 inWSW (250°)10.4 mph18.4 mph
11:00 PM40.6 °F36.5 °F85 %29.12 inWest (260°)10.4 mph
Hourly data recorded from CWBK, located miles away from Beach Point, Prince Edward Island







STORIES FROM OUR PARTNERS